Date String (YYYY-MM-DD hh:mm:ss) UTC,Instrument flags,absolute air pressure of the measurement (hPa),sample flow rate (lpm),inlet stack bypass flow (lpm),air temperature of the measurement (°C),ambient temperature measured by the external sensor (°C),aerosol sample conditioner tube jacket temperature (°C),OPC LED temperature (°C),internal box temperature (°C),relative humidity of the measurement (%),span deviation,mass concentration of particles derived from Lorenz-Mie calculation of OPC scattering (μg/m³),mass concentration of particles derived from Lorenz-Mie calculation of OPC scattering (μg/m³),mass concentration of particles derived from Lorenz-Mie calculation of OPC scattering (μg/m³)
DateTimeUTC,F1_M11,P_M11,Q1_M11,Q2_M11,T1_M11,T2_M11,T3_M11,T4_M11,T5_M11,U1_M11,ZSPAN_M11,X0_M11,X2_M11,X1_M11
2023-10-08 13:00:00,SystemResetWarning,0834.1,5.00,000.00,027.9,026.4,000.0,036.4,029.5,13.9,0000.0,0004.51,0002.72,0002.38
2023-10-08 13:01:00,SystemResetWarning,0834.1,5.00,000.00,027.9,026.4,000.0,036.4,029.5,14.0,0000.0,0004.46,0002.67,0002.36
2023-10-08 13:02:00,SystemResetWarning,0834.0,5.00,000.00,027.9,026.4,000.0,036.4,029.6,14.0,0000.0,0004.51,0002.68,0002.37
2023-10-08 13:03:00,SystemResetWarning,0834.1,5.00,000.00,027.9,026.4,000.0,036.3,029.6,14.1,0000.0,0004.46,0002.68,0002.37
2023-10-08 13:04:00,SystemResetWarning,0834.1,5.00,000.00,027.9,026.4,000.0,036.3,029.6,14.0,0000.0,0004.41,0002.71,0002.38
2023-10-08 13:05:00,SystemResetWarning,0834.1,5.00,000.00,027.9,026.4,000.0,036.4,029.6,13.9,0000.0,0004.67,0002.74,0002.40
2023-10-08 13:06:00,SystemResetWarning,0834.1,5.00,000.00,027.9,026.4,000.0,036.4,029.6,14.0,0000.0,0005.61,0002.73,0002.40
2023-10-08 13:07:00,SystemResetWarning,0834.1,5.00,000.00,027.9,026.4,000.0,036.4,029.6,14.1,0000.0,0005.97,0002.76,0002.40
2023-10-08 13:08:00,SystemResetWarning,0834.1,5.00,000.00,027.9,026.4,000.0,036.3,029.6,14.1,0000.0,0005.98,0002.80,0002.40
2023-10-08 13:09:00,SystemResetWarning,0834.1,5.00,000.00,027.9,026.4,000.0,036.3,029.6,14.0,0000.0,0006.10,0002.86,0002.42
2023-10-08 13:10:00,SystemResetWarning,0834.1,5.00,000.00,027.9,026.4,000.0,036.4,029.6,13.9,0000.0,0006.10,0002.87,0002.41
2023-10-08 13:11:00,SystemResetWarning,0834.1,5.00,000.00,027.9,026.4,000.0,036.3,029.6,13.9,0000.0,0006.44,0002.86,0002.40
2023-10-08 13:12:00,SystemResetWarning,0834.2,5.00,000.00,027.9,026.4,000.0,036.3,029.6,13.8,0000.0,0006.53,0002.89,0002.40
2023-10-08 13:13:00,SystemResetWarning,0834.2,5.00,000.00,027.9,026.4,000.0,036.3,029.6,13.8,0000.0,0006.48,0002.88,0002.38
2023-10-08 13:14:00,SystemResetWarning,0834.2,5.00,000.00,027.9,026.4,000.0,036.4,029.6,13.8,0000.0,0006.64,0002.94,0002.38
2023-10-08 13:15:00,SystemResetWarning,0834.1,5.00,000.00,027.9,026.4,000.0,036.4,029.6,13.8,0000.0,0006.93,0002.98,0002.38
2023-10-08 13:16:00,SystemResetWarning,0834.1,5.00,000.00,027.9,026.4,000.0,036.4,029.6,13.7,0000.0,0006.53,0002.99,0002.37
2023-10-08 13:17:00,SystemResetWarning,0834.1,5.00,000.00,027.9,026.4,000.0,036.4,029.6,13.7,0000.0,0005.58,0003.02,0002.40
2023-10-08 13:18:00,SystemResetWarning,0834.1,5.00,000.00,027.9,026.5,000.0,036.4,029.6,13.8,0000.0,0005.11,0003.06,0002.43
2023-10-08 13:19:00,SystemResetWarning,0834.1,5.00,000.00,027.9,026.5,000.0,036.4,029.6,13.7,0000.0,0005.18,0003.08,0002.46
2023-10-08 13:20:00,SystemResetWarning,0834.1,5.00,000.00,027.9,026.5,000.0,036.4,029.6,13.7,0000.0,0005.34,0003.10,0002.47
2023-10-08 13:21:00,SystemResetWarning,0834.1,5.00,000.00,028.0,026.5,000.0,036.4,029.6,13.7,0000.0,0005.67,0003.12,0002.49
2023-10-08 13:22:00,SystemResetWarning,0834.1,5.00,000.00,028.0,026.5,000.0,036.4,029.6,13.5,0000.0,0005.42,0003.14,0002.53
2023-10-08 13:23:00,SystemResetWarning,0834.1,5.00,000.00,028.0,026.5,000.0,036.4,029.6,13.5,0000.0,0005.52,0003.13,0002.56
2023-10-08 13:24:00,SystemResetWarning,0834.1,5.00,000.00,028.0,026.5,000.0,036.4,029.6,13.5,0000.0,0006.58,0003.15,0002.59
2023-10-08 13:25:00,SystemResetWarning,0834.1,4.99,000.00,028.0,026.5,000.0,036.4,029.6,13.6,0000.0,0006.54,0003.14,0002.60
2023-10-08 13:26:00,SystemResetWarning,0834.1,5.00,000.00,028.0,026.4,000.0,036.4,029.6,13.6,0000.0,0006.31,0003.11,0002.60
2023-10-08 13:27:00,SystemResetWarning,0834.1,5.00,000.00,028.0,026.4,000.0,036.4,029.6,13.6,0000.0,0006.61,0003.11,0002.62
2023-10-08 13:28:00,SystemResetWarning,0834.1,5.00,000.00,028.0,026.5,000.0,036.4,029.6,13.6,0000.0,0006.94,0003.13,0002.64
2023-10-08 13:29:00,SystemResetWarning,0834.2,5.00,000.00,028.0,026.5,000.0,036.4,029.6,13.8,0000.0,0006.81,0003.12,0002.65
2023-10-08 13:30:00,SystemResetWarning,0834.2,5.00,000.00,028.0,026.5,000.0,036.4,029.6,13.9,0000.0,0007.06,0003.14,0002.68
2023-10-08 13:31:00,SystemResetWarning,0834.2,5.00,000.00,028.0,026.5,000.0,036.4,029.6,14.0,0000.0,0008.08,0003.19,0002.73
2023-10-08 13:32:00,SystemResetWarning,0834.2,5.00,000.00,028.0,026.5,000.0,036.4,029.6,14.0,0000.0,0008.14,0003.22,0002.79
2023-10-08 13:33:00,SystemResetWarning,0834.2,5.00,000.00,028.0,026.5,000.0,036.4,029.6,13.9,0000.0,0008.80,0003.27,0002.85
2023-10-08 13:34:00,SystemResetWarning,0834.2,5.00,000.00,028.0,026.5,000.0,036.4,029.6,14.0,0000.0,0009.05,0003.34,0002.89
2023-10-08 13:35:00,SystemResetWarning,0834.2,5.00,000.00,028.0,026.5,000.0,036.4,029.6,14.1,0000.0,0008.60,0003.38,0002.92
2023-10-08 13:36:00,SystemResetWarning,0834.2,5.00,000.00,028.0,026.5,000.0,036.4,029.6,14.1,0000.0,0008.52,0003.41,0002.96
2023-10-08 13:37:00,SystemResetWarning,0834.2,5.00,000.00,028.0,026.5,000.0,036.4,029.6,14.2,0000.0,0008.54,0003.43,0003.01
2023-10-08 13:38:00,SystemResetWarning,0834.2,5.00,000.00,028.0,026.5,000.0,036.4,029.6,14.1,0000.0,0008.42,0003.46,0003.05
2023-10-08 13:39:00,SystemResetWarning,0834.3,5.00,000.00,027.9,026.5,000.0,036.3,029.6,14.2,0000.0,0008.65,0003.46,0003.08
2023-10-08 13:40:00,SystemResetWarning,0834.3,5.00,000.00,027.9,026.4,000.0,036.4,029.6,14.2,0000.0,0008.91,0003.50,0003.09
2023-10-08 13:41:00,SystemResetWarning,0834.2,5.00,000.00,027.9,026.4,000.0,036.4,029.6,14.2,0000.0,0008.88,0003.51,0003.10
2023-10-08 13:42:00,SystemResetWarning,0834.3,5.00,000.00,027.9,026.4,000.0,036.4,029.6,14.2,0000.0,0008.00,0003.50,0003.11
2023-10-08 13:43:00,SystemResetWarning,0834.3,5.02,000.00,027.9,026.4,000.0,036.4,029.5,14.2,0000.0,0008.15,0003.51,0003.11
2023-10-08 13:44:00,SystemResetWarning,0834.2,5.01,000.00,027.9,026.4,000.0,036.4,029.6,14.2,0000.0,0007.53,0003.52,0003.11
2023-10-08 13:45:00,SystemResetWarning,0834.2,5.00,000.00,027.9,026.4,000.0,036.3,029.6,14.1,0000.0,0007.35,0003.50,0003.12
2023-10-08 13:46:00,SystemResetWarning,0834.2,5.00,000.00,027.9,026.4,000.0,036.3,029.5,14.1,0000.0,0007.19,0003.47,0003.12
2023-10-08 13:47:00,SystemResetWarning,0834.2,5.00,000.00,027.9,026.4,000.0,036.3,029.5,14.2,0000.0,0007.11,0003.45,0003.12
2023-10-08 13:48:00,SystemResetWarning,0834.2,5.00,000.00,027.9,026.4,000.0,036.3,029.5,14.0,0000.0,0007.14,0003.44,0003.10
2023-10-08 13:49:00,SystemResetWarning,0834.2,5.00,000.00,027.9,026.4,000.0,036.4,029.6,14.0,0000.0,0007.59,0003.42,0003.09
2023-10-08 13:50:00,SystemResetWarning,0834.4,5.00,000.00,027.9,026.4,000.0,036.4,029.6,14.0,0000.0,0007.84,0003.43,0003.08
2023-10-08 13:51:00,SystemResetWarning,0834.3,5.00,000.00,027.9,026.4,000.0,036.4,029.6,13.9,0000.0,0007.96,0003.42,0003.09
2023-10-08 13:52:00,SystemResetWarning,0834.4,5.00,000.00,027.9,026.4,000.0,036.4,029.6,14.0,0000.0,0008.11,0003.42,0003.08
2023-10-08 13:53:00,SystemResetWarning,0834.4,5.00,000.00,027.9,026.4,000.0,036.3,029.6,13.7,0000.0,0008.55,0003.44,0003.06
2023-10-08 13:54:00,SystemResetWarning,0834.6,5.00,000.00,027.9,026.4,000.0,036.3,029.6,13.8,0000.0,0009.02,0003.42,0003.04
2023-10-08 13:55:00,SystemResetWarning,0834.5,5.00,000.00,027.9,026.4,000.0,036.3,029.6,13.5,0000.0,0009.81,0003.43,0003.04
2023-10-08 13:56:00,SystemResetWarning,0834.4,5.00,000.00,027.9,026.4,000.0,036.3,029.5,13.6,0000.0,0010.11,0003.44,0003.02
2023-10-08 13:57:00,SystemResetWarning,0834.4,5.00,000.00,027.9,026.4,000.0,036.3,029.5,13.8,0000.0,0010.23,0003.43,0003.00
2023-10-08 13:58:00,SystemResetWarning,0834.4,5.00,000.00,027.9,026.4,000.0,036.3,029.5,13.9,0000.0,0010.15,0003.40,0002.98
2023-10-08 13:59:00,SystemResetWarning,0834.5,5.00,000.00,027.9,026.4,000.0,036.3,029.5,13.8,0000.0,0010.12,0003.38,0002.95
